This demonstration page uses our WeatherBlox Daily Observations layout. Learn more.

Left ArrowRight Arrow

Hourly Observations for October 5, 2022

Temp ( °F °C ) Dew Point ( °F °C ) Humidity (%) Winds ( mph kmh ) Pressure ( in mb ) Visibility ( mi km ) Precip ( " mm )
12:53 am 00:53 Clear 67 19.4 53 11.7 61 61 ESE 7 11 29.97 1015 10 16 0.00 0.00
1:53 am 01:53 Clear 68 20 54 12.2 61 61 SE 8 13 29.95 1014 10 16 0.00 0.00
2:53 am 02:53 Clear 67 19.4 54 12.2 63 63 ESE 7 11 29.95 1014 10 16 0.00 0.00
3:53 am 03:53 Mostly Cloudy 67 19.4 53 11.7 61 61 ESE 9 15 29.94 1014 10 16 0.00 0.00
4:53 am 04:53 Cloudy 66 18.9 52 11.1 61 61 SSE 6 9 29.95 1014 10 16 0.00 0.00
5:53 am 05:53 Mostly Cloudy 65 18.3 52 11.1 63 63 ESE 5 7 29.96 1014 10 16 0.00 0.00
6:53 am 06:53 Partly Cloudy 63 17.2 51 10.6 65 65 E 5 7 29.97 1015 10 16 0.00 0.00
7:53 am 07:53 Sunny 61 16.1 51 10.6 70 70 NNE 5 7 29.99 1016 10 16 0.00 0.00
8:53 am 08:53 Mostly Cloudy 64 17.8 51 10.6 63 63 ESE 6 9 30.00 1016 10 16 0.00 0.00
9:53 am 09:53 Partly Cloudy 67 19.4 51 10.6 57 57 SE 6 9 30.03 1017 10 16 0.00 0.00
10:53 am 10:53 Mostly Sunny 72 22.2 52 11.1 49 49 Calm 30.03 1017 10 16 0.00 0.00
11:53 am 11:53 Cloudy 74 23.3 52 11.1 46 46 VRB 3 6 30.03 1017 10 16 0.00 0.00
12:53 pm 12:53 Mostly Sunny 78 25.6 52 11.1 40 40 VRB 7 11 30.01 1016 10 16 0.00 0.00
1:53 pm 13:53 Sunny 79 26.1 52 11.1 39 39 NNE 5 7 29.99 1016 10 16 0.00 0.00
2:53 pm 14:53 Partly Cloudy 82 27.8 52 11.1 35 35 undefined N/A 29.96 1015 10 16 0.00 0.00
3:53 pm 15:53 Mostly Sunny 83 28.3 52 11.1 34 34 Calm 29.93 1013 10 16 0.00 0.00
4:28 pm 16:28 Mostly Cloudy with Nearby Thunderstorms 79 26.1 54 12.2 42 42 NNE 20 31 29.88 1012 10 16 0.00 0.00
4:44 pm 16:44 Partly Cloudy with Thunderstorms 76 24.4 55 12.8 48 48 NNE 20 31 29.91 1013 10 16 0.00 0.00
4:53 pm 16:53 Partly Cloudy with Nearby Thunderstorms 76 24.4 55 12.8 48 48 NNE 20 31 29.95 1014 10 16 0.00 0.00
5:26 pm 17:26 Partly Cloudy with Thunderstorms 74 23.3 56 13.3 53 53 NNE 16 26 29.93 1013 10 16 0.00 0.00
5:53 pm 17:53 Cloudy with Nearby Thunderstorms 73 22.8 57 13.9 57 57 NE 12 19 29.98 1015 10 16 0.01 0.13
6:04 pm 18:04 Cloudy with Thunderstorms 73 22.8 58 14.4 59 59 NW 3 6 29.96 1015 10 16 0.01 0.13
6:36 pm 18:36 Cloudy with Nearby Thunderstorms 68 20 60 15.6 76 76 WNW 13 20 30.01 1016 10 16 0.01 0.13
6:45 pm 18:45 Cloudy with Thunderstorms 66 18.9 58 14.4 75 75 NNW 12 19 30.02 1017 9 14 0.01 0.13
6:53 pm 18:53 Cloudy with Thunderstorms 66 18.9 59 15 78 78 VRB 6 9 30.04 1017 9 14 0.01 0.13
7:18 pm 19:18 Cloudy 66 18.9 60 15.6 81 81 E 6 9 30.05 1018 10 16 0.01 0.13
7:46 pm 19:46 Cloudy with Nearby Thunderstorms 64 17.8 60 15.6 87 87 SSE 8 13 30.09 1019 4 6 0.04 1.02
7:53 pm 19:53 Cloudy with Nearby Thunderstorms 63 17.2 60 15.6 90 90 SE 3 6 30.10 1019 5 8 0.05 1.27
8:02 pm 20:02 Cloudy with Rain 63 17.2 60 15.6 90 90 ESE 3 6 30.10 1019 5 8 0.02 0.51
8:24 pm 20:24 Cloudy with Rain 63 17.2 60 15.6 90 90 Calm 30.11 1020 3 4 0.09 2.29
8:33 pm 20:33 Cloudy with Rain 63 17.2 60 15.6 90 90 Calm 30.11 1020 4 6 0.11 2.79
8:53 pm 20:53 Cloudy with Rain 63 17.2 61 16.1 93 93 N 6 9 30.10 1019 7 11 0.13 3.30
9:53 pm 21:53 Cloudy with Light Rain 63 17.2 61 16.1 93 93 NE 10 17 30.09 1019 8 13 0.06 1.52
10:53 pm 22:53 Cloudy with Light Rain 62 16.7 58 14.4 86 86 NE 15 24 30.08 1019 10 16 0.01 0.13
11:53 pm 23:53 Mostly Cloudy 62 16.7 58 14.4 86 86 NE 9 15 30.07 1018 10 16 0.01 0.13

Powered by AerisWeather